User: anonymous   Login
Location: Hancock Field Station
(44.9202°N, 120.4259°W)
Time: 14:22:03
(UTC-08:00)
Language:

Cosmos 1707 - Orbit

View from above orbital plane
View from above orbital plane
View from above satellite
View from above satellite

Ground track
Ground track

The orbit data is extracted from the following two-line orbital elements,

1 16326U 85113A   14353.87386621  .00005744  00000-0  35352-3 0   861
2 16326 082.5183 020.8684 0011325 196.8971 163.1883 15.09780913579787
Epoch (UTC): 19 December 2014 20:58:22
Eccentricity: 0.0011325
inclination: 82.5183°
perigee height: 529 km
apogee height: 545 km
right ascension of ascending node: 20.8684°
argument of perigee: 196.8971°
revolutions per day: 15.09780913
mean anomaly at epoch: 163.1883°
orbit number at epoch: 57978

The dashed part of the orbit path shows where the satellite is in the earth's shadow,  

DLR